This is the latest recevied weather packets stored in our database for station/object W8KVG. If no packets are shown the sender has not sent any weather packets the latest 10 day(s).
| Time | Temp. | Humidity | Pressure | Rain* | Wind** | Luminosity | Snow |
|---|---|---|---|---|---|---|---|
| 1777562730 | 7.22° C | 86% | 1012.1 hPa | 0 mm | - | 106 W/m² | - |
| 1777562429 | 7.78° C | 89% | 1012.2 hPa | 0 mm | - | 139 W/m² | - |
| 1777562126 | 7.22° C | 89% | 1012.1 hPa | 0 mm | - | 156 W/m² | - |
| 1777561824 | 7.22° C | 94% | 1012.2 hPa | 0 mm | - | 212 W/m² | - |
| 1777561520 | 6.11° C | 93% | 1012.1 hPa | 0 mm | - | 175 W/m² | - |
| 1777561216 | 6.11° C | 94% | 1012 hPa | 0 mm | - | 61 W/m² | - |
| 1777560914 | 6.11° C | 93% | 1011.9 hPa | 0 mm | - | 33 W/m² | - |
| 1777560612 | 6.11° C | 94% | 1011.8 hPa | 0 mm | - | 28 W/m² | - |
| 1777560310 | 6.67° C | 95% | 1011.6 hPa | 0 mm | - | 40 W/m² | - |
| 1777560008 | 6.11° C | 96% | 1011.4 hPa | 0 mm | - | 108 W/m² | - |
| 1777559703 | 6.11° C | 96% | 1011.5 hPa | 0 mm | - | 89 W/m² | - |
| 1777559400 | 5.56° C | 96% | 1011.6 hPa | 0 mm | - | 31 W/m² | - |
| 1777559096 | 5.56° C | 96% | 1011.6 hPa | 0 mm | - | 44 W/m² | - |
| 1777558792 | 5.56° C | 97% | 1011.4 hPa | 0 mm | - | 40 W/m² | - |
| 1777558488 | 5.56° C | 97% | 1011.3 hPa | 0 mm | - | 33 W/m² | - |
| 1777558184 | 5.56° C | 97% | 1011 hPa | 0 mm | - | 43 W/m² | - |
| 1777557880 | 5.56° C | 98% | 1011.2 hPa | 0 mm | - | 43 W/m² | - |
| 1777557577 | 5.56° C | 98% | 1011.1 hPa | 0 mm | - | 33 W/m² | - |
| 1777557273 | 5.56° C | 98% | 1011.1 hPa | 0 mm | - | 35 W/m² | - |
| 1777556970 | 6.11° C | 98% | 1010.9 hPa | 0 mm | - | 34 W/m² | - |
| 1777556665 | 5.56° C | 97% | 1010.8 hPa | 0 mm | - | 45 W/m² | - |
| 1777556362 | 6.11° C | 98% | 1010.7 hPa | 0 mm | - | 46 W/m² | - |
| 1777556057 | 6.11° C | 97% | 1010.7 hPa | 0 mm | - | 48 W/m² | - |
| 1777555757 | 6.11° C | 97% | 1010.8 hPa | 0 mm | - | 34 W/m² | - |
| 1777555454 | 6.11° C | 98% | 1010.5 hPa | 0 mm | - | 32 W/m² | - |
* Rain latest hour (hover to see other rain measurements)
** Current wind speed in m/s (hover to see current wind gust speed)